Regional Weather Roundup
Issued by NWS

Home | Current Version | Previous Version | Graphics & Text | Print | Product List | Glossary On
Versions: 1 2 3 4 5 6 7 8 9 10 11 12 13 14 15 16 17 18 19 20 21 22 23 24 25 26 27 28 29 30 31 32 33 34 35 36 37 38 39 40 41 42 43 44 45 46 47 48 49 50
000
ASUS45 KABQ 030001
RWRNM
WEATHER ROUNDUP FOR NEW MEXICO
NATIONAL WEATHER SERVICE ALBUQUERQUE NM
500 PM MST MON MAR 02 2015

NOTE: "FAIR" MEANS FEW OR NO CLOUDS BELOW 12,000 FEET AGL WITH NO
       SIGNIFICANT WEATHER OR OBSTRUCTIONS TO VISION.

      THIS PRODUCT IS RELEASED AS TWO VERSIONS.  ONE VERSION NEAR
      THE TOP OF THE HOUR CONTAINING PRELIMINARY DATA FROM ALBUQUERQUE
      AND OTHER STATIONS.  A FINAL VERSION WITH ADDITIONAL DATA IS
      ISSUED ABOUT 10 MINUTES AFTER THE HOUR.

NMZ501-503-504-510>518-030100-
NORTHWEST PLATEAU/NORTHCENTRAL MOUNTAINS

CITY           SKY/WX    TMP DP  RH WIND       PRES   REMARKS
FARMINGTON     PTSUNNY   51  35  54 W33G44    29.74R
6HR MIN TEMP:  51; 6HR MAX TEMP:  62;

SANTA FE       CLOUDY    53  31  42 S20G29    29.84F
6HR MIN TEMP:  41; 6HR MAX TEMP:  53;

TAOS           CLOUDY    41  30  65 S7        29.84F
ANGEL FIRE     FAIR      43  29  58 SW17G29   29.86F

$$
NMZ402-403-502-505>509-030100-
WESTCENTRAL MOUNTAINS/SOUTHWEST MOUNTAINS

CITY           SKY/WX    TMP DP  RH WIND       PRES   REMARKS
GALLUP         LGT RAIN  47  36  65 SW31G45   29.80R
6HR MIN TEMP:  47; 6HR MAX TEMP:  55; 6HR PCP: TRACE;

SILVER CITY    CLOUDY    54  45  71 SW15      29.98F

$$
NMZ407-409-411-412-030100-
SOUTHERN DESERTS

CITY           SKY/WX    TMP DP  RH WIND       PRES   REMARKS
DEMING         LGT RAIN  55  49  80 NW13      29.94S
6HR MIN TEMP:  55; 6HR MAX TEMP:  65; 6HR PCP:  0.23;

HOLLOMAN AFB   CLOUDY    55  47  74 S10       29.94F
ALAMOGORDO     CLOUDY    54  46  76 SE13      29.98F
T OR C         CLOUDY    57  45  64 S17       29.90F
6HR MIN TEMP:  55; 6HR MAX TEMP:  63; 6HR PCP: TRACE;


$$
NMZ519>523-030100-
CENTRAL VALLEYS/CENTRAL HIGHLANDS

CITY           SKY/WX    TMP DP  RH WIND       PRES   REMARKS
ALBUQUERQUE    CLOUDY    57  35  43 S29G38    29.84F
6HR MIN TEMP:  46; 6HR MAX TEMP:  59;

DOUBLE EAGLE   CLOUDY    55  36  47 S21G31    29.85S
CLINES CORNERS CLOUDY    49  33  54 SW26G39   29.90F
6HR MIN TEMP:  33; 6HR MAX TEMP:  50;

BELEN          CLOUDY    57  37  47 S26G33    29.85S
6HR MIN TEMP:  55; 6HR MAX TEMP:  63;

SOCORRO        NOT AVBL

$$
NMZ524>526-539-540-030100-
SOUTHCENTRAL MOUNTAINS

CITY           SKY/WX    TMP DP  RH WIND       PRES   REMARKS
RUIDOSO        NOT AVBL

$$
NMZ527>531-030100-
NORTHEAST HIGHLANDS/NORTHEAST PLAINS

CITY           SKY/WX    TMP DP  RH WIND       PRES   REMARKS
LAS VEGAS      FOG       30  29  96 S16       29.90F VSB 1/4 WCI  19
6HR MIN TEMP:  27; 6HR MAX TEMP:  32;

RATON          CLOUDY    30  28  92 NW3       29.85F
6HR MIN TEMP:  27; 6HR MAX TEMP:  30;

CLAYTON        CLOUDY    32  29  88 SW21G29   29.86F WCI  20
6HR MIN TEMP:  29; 6HR MAX TEMP:  34;


$$
NMZ532>537-030100-
EASTCENTRAL PLAINS

CITY           SKY/WX    TMP DP  RH WIND       PRES   REMARKS
TUCUMCARI      CLOUDY    37  33  85 SW10      29.96F WCI  30
6HR MIN TEMP:  33; 6HR MAX TEMP:  37;

CANNON AFB     CLOUDY    36  34  93 S13       29.99F WCI  28
6HR MIN TEMP:  30; 6HR MAX TEMP:  38;

CLOVIS AIRPORT CLOUDY    36  32  87 S14       29.99F WCI  27

$$
NMZ028-029-538-030100-
SOUTHEAST PLAINS

CITY           SKY/WX    TMP DP  RH WIND       PRES   REMARKS
ROSWELL        CLOUDY    40  34  79 S16       30.00F WCI  31
6HR MIN TEMP:  35; 6HR MAX TEMP:  42;

ARTESIA        PTSUNNY   39  37  93 S15G21    30.02F WCI  31
CARLSBAD       CLOUDY    40  34  79 S12       30.05F WCI  33
6HR MIN TEMP:  36; 6HR MAX TEMP:  41;

HOBBS          PTCLDY    39  37  93 E13       30.04F WCI  32


$$


USA.gov is the U.S. government's official web portal to all federal, state and local government web resources and services.